www.pogodaiklimat.ru

Погода и климат >> Архив погоды >> Индия >> Jodhpur


ПОГОДА в Jodhpur

  • Прогноз погоды в Jodhpur
  • Монитор погоды в Jodhpur
  • Климат города

АРХИВ ПОГОДЫ в Jodhpur

Время (UTC), дата Ветер
(напр.,м/с)
 
Видим.   Явления Облачность Т
(С)
Тd
(С)
f
(%)
Тe
(С)
Тes
(С)
Комфортность P
(гПа)
Po
(гПа)
Тmin
(С)
Tmax
(С)
R
(мм)
R24
(мм)
S
(см)
00 12.12 С 1 2000 м мгла 4/3 900 м
[Sc Ac trans]
+13.8 +10.8 82 +15 +15 1015.8 1016.0
03 12.12 штиль 0 2000 м дымка 3/0 2000 м
[Ac trans]
+14.2 +10.0 76 +14 +15 1017.9 1018.0 +13.1 +27.6
06 12.12 штиль 0 2000 м мгла ясно +19.8 +11.1 57 +21 +32 комфорт 1018.9 1019.0
09 12.12 С 2 2000 м мгла ясно +23.4 +7.9 37 +24 +31 комфорт 1014.7 1015.0
12 12.12 С 1 2000 м мгла 3/3 900 м
[Sc]
+21.4 +8.1 42 +22 +23 комфорт 1015.3 1015.0 +23.8
15 12.12 С 1 2000 м мгла ясно +18.2 +7.1 48 +19 +19 1018.5 1019.0
18 12.12 С 1 2000 м мгла ясно +17.2 +6.7 50 +18 +18 1019.3 1019.0
21 12.12 С 2 2000 м мгла ясно +14.8 +7.1 60 +15 +15 1019.8 1020.0
00 13.12 С 1 2000 м мгла ясно +12.8 +7.9 72 +14 +14 1020.5 1021.0
03 13.12 СВ 1 2000 м мгла ясно +12.6 +8.2 75 +14 +15 1022.6 1023.0 +10.4 +23.8
06 13.12 В 1 2000 м мгла ясно +19.6 +9.0 50 +22 +31 комфорт 1022.7 1023.0
09 13.12 ЮВ 1 2000 м мгла ясно +22.6 +3.1 28 +22 +31 комфорт 1019.7 1020.0
12 13.12 СЗ 1 2000 м мгла ясно +20.8 +1.8 28 +23 +23 комфорт 1019.6 1020.0 +23.2
15 13.12 штиль 0 2000 м мгла ясно +14.2 +5.3 55 +14 +14 1022.0 1022.0
18 13.12 штиль 0 2000 м мгла ясно +13.0 +5.3 59 +13 +13 1022.4 1022.0
21 13.12 штиль 0 2000 м мгла ясно +11.8 +4.8 62 +11 +11 1022.5 1023.0
00 14.12 штиль 0 2000 м мгла ясно +10.6 +5.9 73 +10 +10 1022.1 1022.0
03 14.12 В 1 2000 м мгла ясно +12.6 +5.3 61 +14 +15 1024.9 1025.0 +10.1 +23.2
06 14.12 В 1 2000 м мгла ясно +18.4 +5.8 44 +20 +29 1024.7 1025.0
09 14.12 СВ 2 2000 м мгла ясно +22.6 -0.6 21 +22 +29 комфорт 1021.4 1021.0
12 14.12 С 2 2000 м мгла ясно +20.2 -0.1 26 +21 +21 комфорт 1021.4 1021.0 +22.9
15 14.12 штиль 0 2000 м мгла ясно +15.4 +3.4 45 +15 +15 1023.8 1024.0
18 14.12 СВ 1 2000 м мгла ясно +14.2 +3.1 47 +16 +16 1023.7 1024.0
21 14.12 штиль 0 2000 м мгла ясно +12.8 +3.4 53 +13 +13 1023.5 1024.0
00 15.12 СВ 1 2000 м мгла ясно +11.2 +3.0 57 +12 +12 1022.7 1023.0
03 15.12 СВ 1 2000 м мгла ясно +10.8 +4.1 63 +11 +12 1024.8 1025.0 +9.4 +22.9
06 15.12 СВ 2 2000 м мгла ясно +19.2 +2.3 32 +20 +28 1024.2 1024.0
09 15.12 В 2 2000 м мгла ясно +22.2 -2.3 19 +21 +28 комфорт 1020.6 1021.0
12 15.12 СВ 2 2000 м мгла ясно +20.4 +1.8 29 +21 +22 комфорт 1021.4 1021.0 +23.1
15 15.12 штиль 0 2000 м мгла ясно +14.0 +2.8 47 +14 +14 1022.7 1023.0
18 15.12 СВ 1 2000 м мгла ясно +13.8 +0.6 40 +14 +14 1023.1 1023.0
21 15.12 СВ 1 2000 м мгла ясно +11.2 +0.6 48 +12 +12 1022.6 1023.0
00 16.12 СВ 1 2000 м мгла ясно +10.6 +1.0 51 +12 +12 1022.8 1023.0
03 16.12 С 2 2000 м мгла ясно +11.4 +1.5 51 +11 +12 1024.0 1024.0 +9.8 +23.1
06 16.12 С 2 2000 м мгла ясно +20.6 +1.4 28 +22 +31 комфорт 1023.4 1023.0
09 16.12 СВ 2 2000 м мгла 3/0
[Ac trans]
+23.4 -2.2 18 +22 +27 комфорт 1019.6 1020.0
12 16.12 С 1 2000 м мгла 4/0
[Ac trans]
+20.8 +1.8 28 +22 +22 комфорт 1019.3 1019.0 +23.9
15 16.12 С 1 2000 м мгла 6/3 900 м
[Sc Ac trans]
+17.2 +0.9 33 +19 +19 1021.0 1021.0
18 16.12 СВ 1 2000 м мгла 6/0
[Ac trans Ci fib]
+15.2 -0.5 34 +17 +17 1022.1 1022.0
21 16.12 штиль 0 2000 м мгла 4/0
[Ac trans]
+13.2 -1.0 37 +13 +13 1021.5 1022.0
00 17.12 СВ 1 2000 м мгла 5/0
[Ac trans]
+12.8 -1.0 38 +13 +13 1021.1 1021.0
03 17.12 СВ 1 2000 м мгла 1/1 900 м
[Sc]
+12.4 -0.2 42 +14 +15 1022.8 1023.0 +11.1 +23.9
06 17.12 В 2 2000 м мгла 5/0
[Ac trans]
+21.8 -3.3 18 +21 +27 комфорт 1021.6 1022.0
09 17.12 С 2 2000 м мгла 4/0
[Ac trans]
+24.6 -4.9 14 +22 +28 комфорт 1017.7 1018.0
12 17.12 СВ 1 2000 м мгла ясно +21.6 -2.0 20 +21 +21 комфорт 1017.9 1018.0 +24.9
15 17.12 СВ 1 2000 м мгла ясно +15.4 -0.9 33 +17 +17 1020.4 1020.0
18 17.12 СВ 1 2000 м мгла ясно +15.0 -0.2 35 +16 +16 1020.8 1021.0
21 17.12 штиль 0 2000 м мгла ясно +13.0 0.0 41 +13 +13 1020.5 1021.0
00 18.12 штиль 0 2000 м мгла ясно +10.6 -2.8 39 +11 +11 1020.3 1020.0
03 18.12 СВ 1 2000 м мгла ясно +12.0 -1.6 39 +13 +14 1022.3 1022.0 +8.2 +24.9
06 18.12 В 1 2000 м мгла ясно +19.6 -1.3 24 +21 +30 комфорт 1021.0 1021.0
09 18.12 С 1 2000 м мгла ясно +24.8 -3.3 15 +23 +31 комфорт 1017.4 1017.0
12 18.12 штиль 0 2000 м мгла ясно +22.2 +0.9 24 +22 +22 комфорт 1016.9 1017.0 +25.8
15 18.12 штиль 0 2000 м мгла ясно +14.8 -0.5 35 +15 +15 1018.8 1019.0
18 18.12 штиль 0 2000 м мгла ясно +12.6 -0.6 40 +13 +13 1019.6 1020.0

 

Местоположение метеостанции Jodhpur (Rajasthan, Индия): широта 26.30 долгота 73.02 высота над уровнем моря 224 м.

В архиве по умолчанию представлена погода в Jodhpur за последнюю неделю. Архивные данные за месяц целиком и за предыдущие месяцы, начиная с января 2011 года, Вы можете получить, выбрав интересующий диапазон дат из раскрывающегося списка и нажав кнопку "Ввод!".


*Определитесь, кто Вы:
робот инопланетянин человек

Внимание! Время в таблицах - всемирное. Для получения местного времени необходимо прибавить поправку, которая в Jodhpur равна 5.5 ч.

Смотрите также архив погоды в соседних городах и на ближайших метеорологических станциях:

Погода в Ajmer (Rajasthan, Индия) (160 км)
Погода в Barmer (Rajasthan, Индия) (175 км)
Погода в Bikaner (Rajasthan, Индия) (191 км)
Погода в Mount Abu (Rajasthan, Индия) (191 км)
Погода в Bhilwara (Rajasthan, Индия) (193 км)
Погода в Maharana Pratap Airport (Rajasthan, Индия) (206 км)
Погода в Jaisalmer (Rajasthan, Индия) (219 км)
Погода в Chittorgarh (Rajasthan, Индия) (226 км)
Погода в Deesa (Gujarat, Индия) (248 км)
Погода в Jaipur (Rajasthan, Индия) (283 км)

Пояснения к столбцам:

Ветер - указаны скорость ветра в м/с - средняя за 10 мин, порывы в срок и между сроками (в фигурных скобках) и направление, откуда дует ветер: С - северный, СВ - северо-восточный, В - восточный, ЮВ - юго-восточный, Ю - южный, ЮЗ - юго-западный, З - западный, СЗ - северо-западный.
Видимость - горизонтальная дальность видимости в метрах или километрах. При видимости от 1 до 10 км при отсутствии осадков обычно наблюдается дымка, при ухудшении видимости до 1 км и менее - туман. В сухую погоду видимость может ухудшаться дымом, пылью или мглою.
Явления - указаны атмосферные явления, наблюдавшиеся в срок или в последний час перед сроком; фигурными скобками обозначены явления, наблюдавшиеся между сроками (за 1-3 часа до срока); квадратными скобками обозначены град или гололедные отложения с указанием их диаметра в мм.
Облачность - указаны через наклонную черту общая и нижняя облачность в баллах и высота нижней границы облаков в метрах; квадратными скобками обозначены формы облаков: Ci - перистые, Cs - перисто-слоистые, Cc - перисто-кучевые, Ac - высококучевые, As - высокослоистые, Sc - слоисто-кучевые, Ns - слоисто-дождевые, Cu - кучевые, Cb - кучево-дождевые. Подробнее классификацию облаков см. в Атласе облаков (PDF).
T - Температура воздуха - температура, измеренная на высоте 2 м над землей.
Td - Температура точки росы - температура, при понижении до которой содержащийся в воздухе водяной пар достигнет насыщения.
f - Относительная влажность воздуха - влажноcть воздуха, измеренная на высоте 2 м над землей.
Te - Эффективная температура - температура, которую ощущает одетый по сезону человек в тени. Характеристика душности погоды. При расчете учитывается влияние влажности воздуха и скорости ветра на теплоощущения человека.
Tes - Эффективная температура на солнце - температура, которую ощущает человек, с поправкой на солнечный нагрев. Характеристика знойности погоды. Зависит от высоты солнца над горизонтом, облачности и скорости ветра. Ночью, в пасмурную погоду, а также при ветре 12 м/с и более поправка равна нулю.
P - Атмосферное давление - приведенное к уровню моря атмосферное давление.
Po - Атмосферное давление - измеренное на уровне метеостанции атмосферное давление.
Tmin - Минимальная температура - минимум температуры воздуха на высоте 2 м над землей.
Tmax - Максимальная температура - максимум температуры воздуха на высоте 2 м над землей.
R - Количество осадков - Количество выпавших осадков за период времени, мм. При наведении курсора мыши на число - период времени, за который выпало указанное количество осадков.
R24 - Количество осадков - Количество выпавших осадков за 24 часа, мм.
S - Снежный покров - Высота снежного покрова, см. При наведении курсора мыши на число - состояние снежного покрова и степень покрытия местности в баллах.